Temp
21 22 22 22 22 22 22 22 22 22 22 22 22 23 23 23 23 24 25 25 24 24 24 24 24 24 24 24 24 24 24 24 25 24 23 22 22 22 22 22 23 23 23 23 24 24 24 23 23 22 23 23 21 20 21 20 19 22 23 23 22 21 22 22 22 21 22 22 22 21 20 21 20 16 15 15 13 13 13 12 12 12 11 11 12 12 12 12
21 22 22 22 22 22 23 23 23 23 23 23 23 23 23 23 23 23 24 24 25 25 24 24 24 24 24 24 24 24 24 24 24 24 23 22 23 23 23 23 23 23 23 23 23 22 23 23 20 20 23 23 21 21 22 20 20 22 22 22 22 22 22 21 22 21 21 23 22 20 19 21 21 17 16 17 14 13 14 12 11 12 11 11 11 12 11 11
21 22 22 22 22 22 23 23 23 23 23 23 23 23 23 23 23 23 24 24 25 24 25 24 24 24 24 24 24 24 24 24 25 24 23 23 23 23 23 23 23 23 23 22 22 21 22 22 19 20 24 24 21 21 23 22 21 21 22 23 23 22 21 20 21 21 22 22 22 20 18 20 19 16 17 17 14 13 14 12 11 11 11 11 11 10 11 10
21 21 22 22 22 22 23 23 23 23 23 23 23 23 23 23 23 23 23 24 24 24 25 24 25 25 24 24 23 24 24 25 25 24 23 23 23 23 23 23 23 23 23 23 23 22 22 20 19 21 24 24 22 21 23 22 21 21 22 24 22 21 22 22 21 21 20 21 22 21 19 19 18 16 17 16 15 15 14 13 13 12 11 11 10 10 10 10
21 21 21 22 22 22 22 23 23 23 24 24 23 23 23 23 23 23 23 24 24 24 24 24 25 24 24 24 23 24 24 25 25 23 23 24 23 24 24 24 24 23 23 24 23 22 22 20 19 22 23 24 23 23 23 21 21 22 21 22 22 20 22 22 21 20 19 20 21 21 20 19 17 17 16 17 19 18 15 13 13 12 11 11 10 9 9 9
21 21 21 22 22 22 22 23 23 23 24 24 24 24 24 24 24 23 23 24 24 24 24 24 24 24 24 24 23 23 24 25 24 23 24 24 24 24 24 24 24 23 24 24 23 22 22 21 22 23 23 23 22 22 23 20 20 23 21 20 20 20 21 22 21 20 19 20 21 21 20 18 17 17 15 16 18 15 13 13 12 11 10 10 9 8 9 8
21 21 21 21 22 22 22 22 23 23 23 24 24 24 24 24 24 23 23 24 24 24 24 24 24 24 24 24 24 23 23 24 23 23 24 24 24 24 24 24 24 24 24 24 24 23 22 22 23 22 22 23 21 21 22 20 21 23 22 21 20 20 21 22 21 20 19 21 21 19 19 18 18 18 15 15 14 11 12 12 11 10 9 9 9 8 8 8
21 21 21 21 22 22 22 22 23 23 23 24 24 24 24 24 24 24 23 24 24 24 24 24 24 23 23 23 23 23 23 24 23 23 24 24 24 24 24 24 24 24 24 23 22 23 22 22 22 20 22 23 20 21 21 21 22 22 22 21 20 20 21 20 19 19 19 19 18 18 20 18 17 17 15 14 12 10 11 10 9 9 9 9 9 9 7 7
20 21 21 21 21 22 22 22 22 23 23 23 24 24 24 24 24 24 23 24 24 25 24 24 24 23 23 22 21 23 24 23 23 23 24 24 24 24 24 24 24 24 23 22 21 22 22 22 21 20 22 21 20 21 21 22 22 21 21 21 21 20 20 19 19 19 19 18 18 19 20 18 15 16 16 12 11 11 10 10 10 9 9 9 10 8 7 6
20 20 21 21 21 21 22 22 22 22 23 23 23 24 24 24 24 24 23 24 24 24 24 24 23 23 23 22 22 24 24 23 23 23 23 24 23 24 24 24 24 23 22 21 21 21 21 21 20 19 21 21 20 20 20 21 21 20 20 21 21 20 19 19 20 19 18 18 19 20 20 17 14 16 17 12 10 11 10 10 10 10 10 9 10 8 7 7
20 20 20 21 21 21 21 22 22 22 23 23 23 24 24 24 24 24 24 24 24 24 24 24 23 23 22 21 23 24 23 22 23 23 23 23 23 23 23 23 23 23 22 21 20 20 20 20 18 18 21 21 20 20 20 20 20 19 20 21 21 21 20 19 19 19 19 19 19 20 19 15 14 17 17 12 10 11 10 10 9 10 10 9 10 9 7 7
20 20 20 20 21 21 21 21 22 22 22 23 23 23 24 24 24 24 23 24 24 24 24 23 23 23 22 21 22 23 22 22 22 23 23 23 23 23 23 23 22 22 22 21 20 20 20 19 19 21 22 20 21 21 20 19 19 20 20 21 21 21 22 19 19 18 19 20 18 19 20 17 16 17 15 12 10 10 9 10 9 9 9 9 9 9 7 7
19 20 20 20 20 21 21 21 21 22 22 23 23 23 24 24 24 23 23 24 24 24 23 23 23 22 22 22 22 22 22 22 22 22 23 23 22 22 22 22 22 21 21 21 20 20 20 19 20 21 20 20 21 20 20 19 19 20 19 20 21 21 22 19 18 18 19 20 18 19 21 20 19 16 12 11 10 10 10 9 9 9 9 9 8 9 8 7
19 19 20 20 20 20 20 21 21 21 22 22 23 23 24 24 24 23 23 24 24 24 23 23 22 21 22 23 21 21 21 21 22 22 22 22 22 22 21 21 21 21 20 20 20 20 20 19 19 19 19 19 20 19 20 20 19 20 19 19 19 20 22 20 18 19 20 19 17 19 20 20 21 17 11 10 10 10 10 9 9 9 8 8 8 8 9 8
19 19 19 20 20 20 20 21 21 21 22 22 23 23 24 24 23 23 23 24 23 23 23 22 22 21 22 22 21 20 21 21 21 21 21 22 21 21 21 21 21 20 20 20 19 20 19 19 20 20 19 18 19 20 21 20 19 19 20 20 18 18 21 21 18 18 20 19 17 20 20 19 20 17 12 10 10 10 10 9 9 8 8 8 8 8 9 8
18 18 19 19 20 20 20 20 21 21 21 22 22 23 24 24 23 23 23 23 23 23 22 22 22 21 23 22 20 20 20 20 21 21 21 21 21 21 20 20 20 20 20 19 19 19 19 19 19 18 19 20 20 22 22 20 20 19 19 20 20 19 19 20 19 18 19 19 19 20 20 20 19 15 11 10 10 10 10 9 9 8 8 8 8 8 8 8
17 18 18 18 19 20 20 20 20 21 21 22 22 23 24 24 23 23 23 23 23 23 21 22 21 21 22 21 20 20 19 20 21 21 21 21 20 20 20 19 18 18 19 19 19 19 19 19 18 17 19 19 19 21 21 20 21 19 19 19 19 19 18 19 20 18 17 18 19 19 19 19 18 13 10 11 10 10 10 9 9 8 8 8 8 8 8 8
16 17 18 18 19 19 19 20 20 20 21 21 22 23 24 24 23 23 22 22 22 22 21 22 21 23 23 21 20 20 19 20 20 20 21 20 20 20 20 19 17 18 20 19 20 20 20 19 19 20 21 19 19 21 21 20 20 20 19 19 18 18 18 18 19 19 18 18 18 18 18 18 18 14 11 11 10 10 10 10 9 8 8 8 8 8 8 8
14 15 17 18 18 18 19 19 19 20 20 21 22 23 24 24 23 22 22 22 22 23 24 22 22 24 23 21 19 19 19 20 20 20 20 20 20 19 19 19 18 19 21 21 21 20 20 20 20 21 21 21 21 21 21 21 20 20 18 18 18 18 18 17 18 18 17 18 18 17 18 18 18 16 12 11 10 10 10 10 9 8 8 8 8 8 8 7
13 14 16 17 17 18 18 19 19 19 19 20 22 22 24 23 23 23 22 23 22 21 23 22 21 22 22 20 19 18 19 19 19 20 19 19 20 19 19 18 19 21 21 22 22 18 18 21 21 21 22 22 21 20 20 20 18 19 18 18 17 17 17 17 18 17 16 17 18 17 17 17 17 17 14 11 10 10 10 10 9 8 8 8 8 7 7 7
12 13 14 16 17 17 18 18 19 19 19 20 20 21 21 20 21 22 20 22 19 14 17 19 17 19 19 18 18 19 20 19 19 18 19 19 19 20 20 19 21 22 20 19 20 17 17 21 22 22 21 20 20 19 18 18 18 18 18 18 17 16 16 17 17 16 15 16 17 17 16 16 16 17 15 12 10 10 10 10 9 9 8 8 8 7 7 7
10 11 13 15 16 16 17 18 18 19 19 19 20 18 16 16 17 17 16 21 19 12 13 15 14 17 17 17 18 18 20 20 19 19 18 18 19 20 21 20 21 22 19 17 19 20 19 21 23 21 18 17 18 17 17 18 17 17 17 17 17 16 16 17 16 14 14 15 16 16 15 15 16 16 15 13 11 11 11 11 11 10 9 8 8 8 7 7
9 9 11 13 15 16 16 17 18 18 18 19 19 16 14 14 15 14 14 18 19 15 14 16 17 18 17 17 17 18 19 19 20 20 18 18 19 19 20 20 21 21 19 20 21 21 21 21 20 17 16 18 18 17 17 18 17 17 16 17 17 16 16 17 16 14 15 15 15 15 14 14 15 15 15 14 12 12 11 11 11 10 10 9 8 8 8 8
9 9 10 12 14 15 16 17 17 17 17 18 17 16 15 15 15 14 16 18 19 18 16 16 16 17 18 18 17 18 19 18 19 19 17 19 19 18 20 21 20 20 20 20 20 21 22 20 16 15 17 19 19 17 17 18 18 17 16 17 17 17 17 17 15 14 15 15 14 14 14 14 14 15 16 14 11 12 12 11 10 10 9 9 8 8 8 7
9 9 9 10 12 14 15 16 17 16 16 16 16 16 15 15 15 14 16 19 20 19 16 16 16 17 18 17 17 18 18 19 18 17 16 18 19 19 20 19 19 21 20 18 19 20 21 16 14 17 18 17 18 18 17 18 18 18 17 17 17 17 17 15 14 14 15 16 14 14 15 16 15 15 15 14 12 11 11 10 10 10 9 8 8 8 7 7
9 9 9 9 10 13 15 16 15 15 16 15 15 16 15 15 15 14 17 20 20 20 19 18 18 19 18 17 17 17 19 20 17 15 16 17 17 19 20 18 18 20 19 18 18 19 18 14 14 17 17 17 18 17 16 16 17 18 16 15 15 16 15 14 14 15 16 15 13 13 14 15 15 16 17 15 14 13 11 10 10 10 9 8 8 8 7 7
9 9 8 9 9 12 14 15 14 15 16 15 14 15 15 15 14 14 18 20 20 22 21 18 18 19 18 17 17 18 21 20 16 16 16 16 17 18 20 19 18 18 17 18 20 19 17 15 15 16 17 17 17 17 16 15 17 18 14 13 15 15 15 14 14 14 14 13 13 13 13 13 13 15 16 15 15 15 12 11 9 9 9 8 8 8 7 7
9 9 9 9 9 10 11 13 13 14 15 14 14 15 14 14 14 16 19 20 21 22 21 18 17 18 17 15 16 19 19 18 19 18 15 15 17 18 19 19 19 20 17 18 21 18 16 18 18 17 17 16 17 18 16 15 18 17 12 12 14 14 14 13 13 13 12 11 13 13 12 13 13 14 13 12 13 15 14 13 11 9 9 9 8 8 7 7
9 9 9 9 9 10 10 12 12 13 13 13 14 14 14 14 14 18 20 20 21 22 21 19 18 17 17 16 17 18 17 17 19 17 15 16 17 17 18 17 18 20 17 17 20 18 16 16 16 17 18 17 17 15 13 15 17 14 11 12 13 12 12 12 12 13 11 11 13 13 12 14 15 15 14 12 13 15 15 14 13 11 9 9 8 8 7 7
9 9 9 9 10 10 11 11 12 12 12 13 14 14 14 14 17 19 19 19 22 21 19 19 18 18 17 18 18 17 17 18 17 16 16 17 16 16 16 15 16 18 17 16 17 17 14 12 13 15 16 16 15 11 10 12 14 12 13 14 14 13 11 11 10 11 12 13 14 14 13 14 15 15 16 16 17 17 17 16 14 11 10 9 8 7 7 7
9 9 9 9 10 10 11 11 11 12 12 13 14 13 15 17 18 18 19 20 21 20 19 19 18 17 17 18 19 17 17 18 17 17 18 17 17 17 16 16 17 17 17 17 17 15 14 14 14 14 13 13 14 12 10 10 11 13 15 15 16 15 13 12 11 11 13 15 15 12 11 13 14 15 16 17 17 16 16 18 17 14 10 9 8 7 7 7
9 9 10 10 10 9 10 11 11 11 12 13 13 14 17 18 17 17 19 21 21 20 20 19 17 17 17 17 19 17 17 18 17 17 18 17 17 17 17 19 19 19 18 18 17 16 15 15 14 13 11 12 15 15 12 11 12 13 14 15 15 15 15 15 14 13 14 15 13 10 11 13 14 15 16 16 16 15 14 15 16 15 12 9 8 8 7 6
9 9 10 10 10 9 9 10 10 11 12 12 13 16 17 17 16 17 19 21 21 19 19 18 16 16 17 18 19 17 16 18 17 17 17 16 16 17 17 17 17 20 19 17 17 18 18 15 12 13 14 13 15 16 15 14 13 13 14 15 16 15 15 16 15 15 15 15 12 10 12 13 14 16 16 16 17 16 14 13 13 13 12 10 8 8 7 6
9 9 9 9 10 10 9 10 10 11 11 12 15 17 16 15 16 17 19 20 20 17 17 17 16 16 17 18 18 17 17 19 16 16 17 15 16 17 17 15 14 18 19 17 17 17 18 18 15 15 15 13 14 15 16 15 13 12 13 15 16 16 16 16 16 16 16 15 12 10 12 14 16 17 15 15 15 13 12 11 10 11 11 10 8 7 6 5
9 10 10 9 9 10 10 9 10 10 11 13 16 16 15 16 17 17 19 19 18 17 17 16 16 17 17 17 16 16 18 19 16 15 16 16 16 17 18 17 15 16 18 18 18 15 16 18 15 12 11 12 13 13 13 15 14 12 11 13 15 15 16 16 15 14 14 13 12 11 13 14 15 15 14 13 12 11 11 9 8 10 10 9 8 7 6 5
9 9 9 9 9 10 10 9 10 10 11 14 15 14 14 16 17 17 19 19 19 19 17 16 17 18 18 17 17 16 17 17 16 16 16 15 16 15 17 18 16 16 18 19 18 17 17 17 12 10 11 10 10 11 11 14 16 13 12 14 13 12 15 16 14 11 11 12 13 13 14 14 15 15 14 12 12 12 12 10 8 9 8 8 7 6 5 5
9 9 9 8 9 10 10 10 10 10 11 14 14 14 15 17 17 18 18 18 18 18 18 19 18 18 18 18 18 17 17 16 16 17 17 16 17 16 16 17 15 15 19 19 19 18 18 18 12 10 13 10 7 10 11 11 13 13 14 14 12 11 13 14 13 12 11 12 13 14 14 15 15 15 13 12 12 13 12 10 8 7 7 7 7 6 5 5
9 9 8 9 9 10 10 10 9 10 11 13 13 14 15 16 16 18 18 17 17 18 18 19 19 18 18 18 18 17 16 17 16 16 17 17 18 17 16 18 16 15 17 19 19 17 17 19 14 8 10 10 7 11 13 10 10 12 13 12 12 14 14 13 12 13 12 12 13 14 15 15 16 16 16 15 14 15 14 9 7 7 7 7 6 6 5 5
9 8 9 9 10 10 10 10 9 10 11 12 12 13 14 15 16 17 18 18 18 18 18 19 19 18 17 17 18 16 15 17 16 16 17 17 17 17 17 18 17 14 15 17 18 16 15 18 16 8 7 10 10 12 14 12 10 10 11 11 12 13 13 13 12 13 13 13 13 15 15 16 17 17 18 17 16 16 15 9 7 8 7 7 6 6 5 4
9 9 9 10 10 10 10 9 9 10 11 12 13 13 13 15 16 16 17 17 18 19 18 18 18 18 17 16 16 16 16 16 15 16 17 17 17 17 16 18 17 14 13 14 16 16 15 17 16 10 7 10 12 12 13 14 12 11 11 11 11 12 12 12 11 12 13 13 13 13 13 15 17 17 18 18 17 17 15 11 8 7 7 7 6 5 5 4
9 9 9 10 9 9 9 9 9 9 10 12 13 13 13 14 15 15 16 16 17 18 17 18 18 18 17 16 16 16 16 16 14 15 16 16 17 18 17 17 17 14 13 14 15 16 15 15 15 12 9 11 13 12 11 13 14 13 12 12 12 12 12 12 12 12 12 12 13 12 12 15 16 17 18 18 17 17 14 11 9 8 7 7 6 5 5 4
9 9 9 9 8 9 9 9 10 10 10 11 13 13 14 14 14 15 15 15 15 16 16 16 17 17 17 17 17 17 16 16 14 14 15 16 16 18 18 16 16 15 15 15 14 14 15 14 14 14 12 11 11 9 8 10 11 12 12 12 12 12 12 13 13 12 11 11 12 11 11 14 16 16 17 16 16 15 12 10 9 8 7 7 6 5 5 4
9 9 8 8 8 9 10 9 10 10 10 11 13 13 13 14 14 14 15 15 15 15 15 16 16 16 16 17 17 17 16 16 15 14 15 16 16 17 17 16 14 15 16 16 14 13 14 15 14 14 14 11 9 9 8 8 9 11 11 11 11 12 13 13 13 12 12 12 12 11 11 15 15 13 13 12 12 12 10 9 10 9 7 7 6 5 4 4
9 9 8 7 8 9 10 10 10 10 10 10 11 12 12 13 13 13 14 15 15 15 15 16 16 16 16 16 17 17 16 17 16 15 16 16 15 15 16 15 14 15 16 16 16 15 15 15 15 14 14 13 11 11 10 9 9 10 11 11 11 12 13 12 11 11 11 12 12 12 12 16 14 10 10 11 10 10 9 8 9 8 7 6 5 5 4 3
9 9 8 7 7 8 9 10 11 11 10 10 10 11 11 12 13 13 13 14 15 15 15 16 16 16 16 15 16 16 16 17 17 16 16 16 14 14 14 13 14 16 16 16 16 16 15 15 15 14 14 14 14 14 13 11 9 9 10 10 10 11 12 12 12 11 11 12 12 12 13 16 15 13 12 12 11 10 9 8 7 7 7 6 5 4 3 3
9 9 9 8 7 8 8 9 9 10 10 10 9 10 10 11 12 13 13 13 14 14 15 16 15 15 15 14 15 15 15 16 17 16 15 15 15 13 10 10 12 13 13 14 14 15 15 15 14 15 15 15 16 17 14 12 12 11 11 10 10 10 10 11 11 11 11 12 11 12 13 14 15 15 14 14 12 11 10 9 8 7 6 6 5 4 3 2
10 10 10 9 8 8 8 9 8 9 10 10 10 11 11 11 11 12 12 12 13 14 14 15 14 14 15 14 14 15 15 15 15 15 15 15 15 12 8 7 9 10 11 12 13 14 15 14 14 15 15 15 17 17 14 14 14 14 13 11 10 9 9 10 10 11 12 12 11 13 14 13 14 15 15 15 14 11 9 9 8 7 6 5 4 4 3 2
10 11 11 11 11 10 9 9 9 8 9 10 11 12 12 12 11 12 12 12 13 13 14 14 14 14 15 15 15 15 15 15 14 14 15 15 14 14 11 9 8 8 10 11 11 13 14 15 15 14 14 14 15 15 14 14 14 14 14 13 11 9 9 9 10 12 12 12 13 14 15 14 14 15 15 16 16 14 11 10 9 7 6 5 4 4 3 2
10 10 11 11 12 11 10 10 10 9 8 9 10 12 12 12 12 12 12 12 12 12 13 13 14 14 14 15 15 15 15 15 15 15 15 15 15 14 14 13 9 7 9 10 10 10 13 14 15 14 13 13 13 13 13 13 13 13 13 13 12 10 10 9 10 11 12 12 13 14 14 14 15 15 15 16 16 15 12 10 8 7 6 5 4 3 3 2
11 10 11 10 11 11 11 10 10 9 9 9 9 11 12 12 12 12 12 12 12 12 12 13 14 14 14 14 15 15 16 16 16 16 15 15 15 14 14 15 12 7 7 10 10 10 12 13 14 13 13 13 13 13 12 12 12 12 12 13 13 12 11 10 10 10 11 11 12 12 12 13 14 15 15 15 14 13 12 10 8 7 6 5 4 3 3 2
11 11 11 11 10 10 11 10 9 9 9 9 9 10 11 11 12 12 12 13 13 13 12 13 13 14 13 13 14 15 16 16 17 17 16 15 15 15 15 15 14 10 8 8 9 10 10 11 12 12 12 12 13 12 11 11 10 10 11 12 12 12 12 11 11 11 11 11 11 11 11 11 13 14 14 14 13 12 12 10 8 6 5 4 4 3 3 2
11 10 11 11 10 11 10 10 10 9 9 10 10 10 11 11 12 12 12 12 13 13 13 13 13 13 13 13 13 14 16 16 16 16 16 15 16 16 15 14 13 12 9 7 9 10 10 11 12 11 11 12 12 10 9 10 10 10 12 12 12 12 11 12 12 12 12 11 11 11 12 13 14 14 13 13 12 11 11 10 9 7 5 4 4 3 3 2
Height
832 831 830 829 828 827 826 824 823 821 820 819 818 816 815 814 812 811 810 808 807 806 805 804 803 803 803 802 802 801 801 800 800 799 799 801 800 800 799 798 797 796 796 795 794 793 792 792 791 790 789 791 794 795 794 795 796 798 805 810 814 821 819 814 817 817 814 813 814 816 815 816 822 828 828 829 833 835 836 839 838 837 837 837 837 839 841 842
832 831 830 829 828 827 826 824 823 822 820 819 818 816 815 814 812 811 810 809 808 806 805 804 804 803 803 803 802 802 801 801 800 800 800 801 800 799 799 798 797 797 796 795 794 793 793 793 792 791 791 794 797 795 795 796 797 801 809 811 812 817 813 809 810 811 811 809 811 816 817 814 816 823 825 827 837 837 835 841 842 840 840 839 839 840 841 842
832 831 830 829 828 827 826 824 823 822 820 819 818 816 815 814 812 811 810 809 808 807 806 804 804 803 803 803 802 803 801 801 801 801 800 800 800 799 798 797 797 796 796 795 794 794 794 793 793 793 793 796 798 797 796 797 799 803 808 810 811 811 810 809 809 808 809 807 810 816 818 815 816 822 822 825 836 837 834 838 840 841 841 840 840 841 841 842
831 830 829 829 828 826 825 824 823 822 820 819 817 816 815 814 813 811 810 809 808 807 806 805 804 803 803 802 803 803 801 803 803 801 800 800 800 799 798 797 797 796 796 795 794 794 794 793 793 793 795 797 800 800 799 799 801 804 805 806 808 809 809 807 807 808 809 809 808 813 817 817 819 821 821 825 831 833 832 829 828 832 836 838 840 841 841 841
831 830 829 828 827 826 825 824 822 821 820 818 817 816 814 813 812 811 810 809 808 807 806 805 804 803 803 802 804 802 803 810 806 799 800 800 799 799 798 797 797 796 796 795 795 794 793 793 793 795 797 800 802 801 802 802 802 804 806 805 805 809 808 805 806 809 809 810 809 811 813 815 818 820 822 821 818 820 823 823 824 827 831 835 837 839 840 840
830 829 828 827 827 826 824 823 822 821 819 818 817 815 814 813 812 811 809 808 808 807 806 805 804 804 803 803 804 802 807 812 803 798 800 799 799 799 798 797 797 796 796 796 795 794 795 795 794 799 802 802 806 805 804 805 803 804 809 809 807 808 807 804 806 808 809 809 808 809 810 814 818 819 823 819 815 819 820 821 826 830 832 834 836 838 839 839
830 829 828 827 826 825 824 823 822 820 819 818 816 815 814 812 811 810 809 808 807 806 806 805 804 804 803 803 803 804 808 807 800 799 800 799 799 799 798 798 797 797 796 796 795 795 797 797 797 803 805 804 809 809 806 806 804 805 809 810 810 809 806 805 806 808 809 808 808 809 809 813 815 817 823 822 822 826 823 822 827 830 834 835 837 838 838 837
830 829 828 827 826 825 824 822 821 820 818 817 816 814 813 812 811 810 808 807 806 806 805 804 804 803 803 804 804 807 808 803 799 800 799 799 799 799 798 798 797 797 797 796 797 797 799 800 802 805 806 807 810 809 807 806 805 806 808 809 810 810 808 807 809 809 810 810 811 811 809 813 816 817 821 825 827 828 825 825 829 831 834 836 836 837 836 837
829 829 828 827 826 825 823 822 821 819 818 817 815 814 813 811 810 809 807 806 805 805 804 804 804 803 804 804 805 810 806 800 800 800 799 799 799 799 798 798 798 797 797 798 798 797 799 803 804 804 805 808 810 808 808 808 808 808 807 807 808 809 809 810 810 810 811 811 811 810 809 814 820 818 820 827 829 828 828 828 830 832 834 835 835 835 835 836
829 828 827 826 825 824 823 822 820 819 817 816 814 813 812 810 809 808 806 805 804 804 803 803 803 803 804 803 807 811 803 799 800 799 800 799 799 799 798 798 798 798 798 798 799 798 800 802 803 803 804 808 809 810 811 810 810 809 808 806 806 808 809 810 809 810 812 811 810 808 810 816 821 818 817 826 830 828 829 830 831 832 832 834 834 834 834 834
829 828 827 826 825 824 822 821 820 818 817 815 814 812 811 810 808 807 805 804 803 803 803 802 802 803 803 803 809 809 801 799 800 799 800 799 799 799 798 799 798 798 798 798 800 800 801 801 802 803 804 807 808 811 811 809 809 809 808 806 806 806 806 808 809 810 810 810 809 808 813 821 823 816 811 821 828 828 828 830 832 832 831 833 832 833 834 834
829 827 826 825 824 823 822 821 819 818 816 814 813 811 810 809 807 806 804 803 802 802 802 801 802 802 803 805 807 804 799 800 800 799 800 799 799 799 799 799 798 799 798 799 801 801 801 801 802 803 805 807 809 811 810 809 810 809 809 808 806 805 804 806 809 810 808 808 809 808 812 816 817 813 812 820 826 828 830 830 832 832 832 832 832 833 834 834
828 827 826 825 824 823 821 820 818 817 815 813 812 810 809 807 806 805 803 802 802 801 801 800 801 801 803 805 803 800 799 800 799 800 800 799 800 799 799 799 799 799 799 799 801 801 802 801 802 804 806 807 809 811 809 810 811 810 814 815 812 810 806 807 810 810 808 808 809 810 812 807 805 811 816 820 824 827 830 830 831 832 832 833 833 834 833 833
828 827 825 824 823 822 821 819 818 816 814 813 811 809 808 806 805 803 802 801 801 800 800 800 800 801 803 804 800 799 800 799 800 800 799 799 799 799 799 800 799 799 799 800 801 801 802 802 803 804 806 808 809 809 810 813 814 814 817 819 824 822 810 807 811 810 808 810 809 811 815 805 798 808 818 821 821 824 827 829 831 831 832 833 833 833 832 832
826 826 825 824 823 821 820 818 817 815 814 812 810 808 806 805 803 801 801 800 800 800 799 799 800 801 804 803 798 799 799 799 799 799 799 799 799 799 799 799 800 800 800 800 801 801 802 802 803 805 808 808 808 810 813 816 817 820 819 820 829 829 816 808 810 810 807 809 809 811 814 806 799 806 815 820 821 822 823 826 829 829 830 831 831 832 831 830
825 825 824 823 822 821 819 818 816 815 813 811 809 807 805 803 801 800 799 799 799 799 798 800 799 800 805 803 799 799 799 799 799 799 799 799 799 800 800 800 800 800 801 801 802 802 802 802 806 810 809 808 811 811 815 819 820 824 826 823 825 827 824 815 809 810 809 808 808 808 810 802 799 809 816 819 821 821 822 824 826 827 828 829 829 829 829 829
824 823 823 822 821 820 819 817 815 814 812 810 808 805 803 802 800 798 799 799 799 798 798 799 798 801 803 801 799 799 798 797 798 799 799 799 799 800 800 800 800 801 801 801 802 802 802 804 809 811 811 815 817 814 818 825 822 825 828 826 825 827 828 821 810 810 812 812 809 809 810 801 799 812 818 818 820 821 820 821 823 824 826 826 827 826 826 826
823 822 822 821 820 819 818 816 815 813 811 809 807 804 801 800 799 798 799 798 798 798 800 799 800 805 803 798 798 798 796 797 798 798 799 799 799 800 800 800 801 801 802 803 803 803 804 807 810 811 813 817 817 815 821 825 822 825 828 827 828 829 828 825 817 812 812 812 811 812 811 802 799 810 817 816 819 819 816 817 820 822 824 823 824 824 823 823
821 821 820 820 819 818 817 816 815 813 811 809 807 804 800 799 798 798 798 798 800 801 801 800 799 803 801 796 796 796 796 797 797 797 798 799 799 800 800 800 802 801 804 805 803 805 807 808 812 813 813 813 813 814 815 817 819 822 826 828 829 828 825 822 817 813 814 813 811 812 810 802 797 803 811 815 816 817 815 817 819 820 821 821 820 820 819 819
821 820 819 819 818 817 817 816 815 813 812 809 807 803 801 803 803 801 800 798 799 799 799 798 797 797 796 795 795 796 796 797 797 797 798 798 798 800 800 801 802 803 805 806 805 810 812 812 814 813 811 809 810 813 813 816 820 822 825 827 828 830 824 816 815 815 817 817 808 806 808 804 798 796 802 810 814 816 816 815 816 816 816 816 816 816 815 815
820 819 818 818 817 817 816 815 814 813 812 810 808 806 808 811 811 809 806 799 796 797 796 796 797 796 795 795 795 795 796 797 797 797 797 798 799 800 801 802 804 805 809 811 810 813 815 813 810 807 807 809 811 815 817 819 821 822 824 825 827 832 825 814 816 818 818 819 809 805 809 805 798 792 795 805 811 810 808 807 807 809 810 810 811 812 812 812
819 818 817 818 817 816 815 815 814 813 812 811 810 810 812 814 813 814 813 806 798 796 797 796 796 796 794 795 795 795 797 798 798 797 797 798 799 800 802 804 805 806 811 814 812 814 817 811 803 804 812 815 815 818 818 819 823 824 827 828 826 827 824 816 817 820 820 819 809 805 808 804 798 790 789 798 801 798 796 795 795 798 802 804 806 807 808 809
818 817 817 816 816 816 815 814 814 813 812 812 811 812 813 813 814 814 815 812 803 795 796 796 795 795 795 794 794 795 797 799 798 796 796 798 799 801 802 803 806 807 810 810 809 813 813 806 804 811 815 812 815 819 818 819 822 824 826 827 822 822 824 817 816 820 820 818 812 808 808 805 799 787 780 787 790 788 789 789 791 793 794 796 799 801 801 803
816 816 816 815 815 815 814 814 813 813 812 812 812 812 813 813 814 814 813 813 805 796 794 795 794 794 793 793 792 794 797 797 796 795 795 796 799 801 800 803 807 808 809 808 809 809 804 805 813 816 813 810 813 818 818 818 819 821 823 823 818 817 819 818 820 823 819 817 818 813 804 795 794 786 775 782 790 786 786 789 791 791 792 795 797 797 797 798
816 816 815 814 815 813 814 814 812 813 812 812 813 812 813 813 813 815 813 813 807 797 794 793 793 792 790 791 792 793 795 795 794 795 795 795 797 800 801 804 806 806 809 812 813 809 804 812 817 813 813 814 814 816 818 818 819 819 816 815 814 812 816 820 823 825 819 816 819 819 808 788 785 787 777 781 789 785 786 788 786 786 791 794 793 792 794 795
815 815 814 814 814 813 814 812 812 813 811 812 813 812 814 813 814 815 813 818 811 795 791 792 791 791 789 791 793 793 795 795 794 794 795 796 796 797 800 805 806 806 809 812 812 808 808 816 817 811 813 816 816 818 818 819 822 821 815 816 817 816 819 822 824 824 819 818 820 825 822 800 783 778 772 775 780 779 783 785 781 782 787 788 785 785 790 792
814 814 814 813 813 813 813 812 812 812 811 813 812 813 814 812 815 813 813 825 813 788 787 793 791 789 788 792 792 792 795 794 794 795 795 796 796 796 799 804 806 806 809 811 809 807 809 814 816 814 814 817 817 815 816 820 820 818 819 821 818 817 821 822 824 825 824 826 823 821 827 816 792 778 773 774 774 772 775 779 778 780 780 779 779 781 784 786
813 814 813 813 813 813 813 812 812 812 812 813 812 814 813 812 815 812 818 830 808 780 783 790 789 788 788 792 792 792 795 794 794 796 796 796 796 797 799 802 802 802 806 809 805 805 807 807 809 811 813 816 813 808 812 817 813 815 823 826 821 821 824 825 826 827 832 835 821 814 825 819 791 777 781 784 779 771 765 765 768 772 773 772 773 778 781 783
812 812 812 813 812 812 812 812 812 812 812 812 813 813 812 814 814 812 827 829 795 776 783 786 787 790 790 793 794 794 795 795 795 796 796 797 796 797 801 803 803 802 806 808 802 803 808 809 809 808 809 809 808 813 818 814 810 817 826 825 824 828 829 831 831 829 836 836 816 808 820 813 781 764 774 783 778 767 757 753 756 761 765 767 770 776 778 781
811 811 812 811 811 812 811 811 812 811 812 812 813 813 812 814 814 822 836 821 787 781 787 785 788 790 791 794 795 796 797 795 797 797 797 798 797 799 803 805 804 804 808 810 806 806 810 815 815 809 807 807 810 822 827 820 818 821 823 820 820 827 832 837 838 835 834 822 804 802 809 808 787 763 760 762 753 748 745 744 748 753 759 764 768 772 774 777
809 810 810 810 811 811 810 811 811 811 812 812 812 813 813 815 822 831 828 801 784 787 786 786 791 790 791 793 792 796 797 795 797 797 797 800 800 801 803 804 804 808 812 810 807 810 812 811 810 808 810 812 810 818 826 827 826 821 818 818 817 821 827 833 837 838 830 805 795 808 813 811 794 763 751 748 742 743 742 735 736 743 752 759 763 766 768 772
808 809 809 809 810 810 810 811 810 811 812 811 812 812 814 822 828 824 809 789 784 785 781 785 792 791 793 794 791 795 796 794 796 796 796 800 801 800 799 797 798 803 808 808 806 807 806 805 808 808 811 811 805 811 822 824 823 820 819 821 822 825 827 823 822 826 819 800 801 817 816 803 779 752 747 747 740 742 743 737 734 737 746 753 758 761 764 769
806 806 807 808 808 809 810 809 810 811 810 811 813 811 818 827 821 808 799 786 780 781 781 785 791 792 794 792 790 794 795 793 794 795 796 801 802 798 796 797 797 793 798 809 809 803 798 801 809 807 804 805 801 803 810 812 817 820 818 816 818 827 831 821 815 813 805 796 805 818 811 790 763 743 741 738 731 733 738 741 740 740 745 749 752 757 760 766
804 804 805 805 806 807 808 809 809 810 810 811 812 814 824 825 809 798 794 784 779 784 786 787 792 794 792 790 789 791 791 789 793 795 796 802 804 798 793 798 802 794 796 808 809 805 800 794 796 798 796 799 798 796 798 803 814 820 817 815 813 815 818 813 806 801 793 790 802 815 803 773 747 733 733 733 733 738 741 744 745 743 745 747 750 756 759 763
802 802 802 803 804 805 806 808 808 809 811 810 812 818 819 809 798 795 789 782 782 785 787 790 792 792 792 791 792 790 785 784 792 796 795 798 798 792 787 788 796 795 795 801 802 808 809 793 791 802 803 801 799 801 803 800 807 821 822 817 811 806 804 807 808 809 811 807 803 802 785 757 740 732 733 738 740 741 743 745 747 744 743 747 750 753 757 760
801 801 800 800 801 802 805 806 807 809 809 808 814 814 800 788 788 787 779 775 777 780 786 792 791 791 792 790 789 789 784 785 793 794 794 797 793 791 786 780 786 788 784 790 794 798 799 791 798 808 804 806 807 805 806 797 797 815 818 808 810 812 804 804 813 822 830 819 792 779 767 750 740 728 726 738 739 736 740 741 744 745 744 747 748 749 753 755
800 799 798 797 797 800 803 804 806 808 808 810 809 798 785 780 779 776 773 774 775 777 782 786 784 785 787 784 783 785 785 788 793 790 791 793 785 782 783 777 779 779 771 775 781 784 786 784 797 805 797 806 817 808 806 807 802 807 808 801 808 816 809 809 817 820 826 819 789 770 763 750 741 730 725 736 738 730 733 739 744 747 746 745 744 745 749 751
799 799 796 792 794 798 800 803 806 806 808 809 801 788 782 779 774 771 771 772 773 775 778 779 777 776 780 781 779 783 786 785 789 790 787 786 776 770 774 771 772 776 769 769 774 781 787 782 794 814 808 806 816 806 800 808 809 805 804 805 806 806 806 813 818 812 814 814 788 766 759 742 728 723 718 723 727 719 724 739 745 744 743 742 742 744 748 750
798 799 793 786 789 794 797 801 803 806 808 804 795 787 780 774 771 769 766 767 769 771 774 773 770 772 777 778 776 781 785 782 786 788 781 779 774 767 766 763 767 777 774 772 775 780 788 782 786 813 819 808 808 803 796 800 810 811 809 810 807 803 803 807 811 805 801 802 785 768 762 731 705 709 708 707 714 711 715 733 741 738 736 737 739 741 745 747
796 796 788 781 784 789 794 800 803 806 802 789 781 780 775 771 768 764 762 764 764 764 768 768 768 770 773 777 777 776 779 780 782 783 776 774 770 764 763 759 762 776 780 778 778 779 788 787 783 805 822 811 796 791 786 785 796 804 805 808 806 804 806 806 807 801 793 795 788 782 776 730 690 698 702 698 705 705 708 723 733 733 731 733 736 738 740 743
794 794 784 779 783 786 792 799 799 799 793 779 772 774 772 768 766 763 763 764 763 760 762 764 764 764 766 773 775 773 775 777 779 780 774 770 766 758 756 754 757 771 779 780 779 776 782 786 784 796 809 798 782 783 787 781 781 786 789 792 792 794 801 802 800 795 792 791 780 783 784 732 688 695 698 695 701 701 706 718 724 728 728 730 734 734 736 739
791 790 782 780 783 783 788 793 789 788 785 774 768 768 767 764 763 763 762 764 765 763 762 762 760 761 763 763 765 767 769 772 776 778 771 765 760 751 748 752 756 762 766 771 774 772 776 782 783 783 785 787 787 792 797 792 785 785 785 783 784 787 789 788 786 785 790 788 775 788 787 726 684 695 697 696 702 700 708 717 717 721 724 726 731 732 735 738
784 784 781 781 782 782 787 788 784 784 779 768 764 764 763 762 762 762 760 762 764 762 762 760 756 758 760 758 760 763 764 765 768 770 765 759 753 747 746 752 756 758 759 763 769 773 775 777 779 775 773 784 794 795 796 796 794 789 783 783 784 778 772 773 775 777 781 778 775 793 777 709 683 705 705 704 711 708 712 716 713 717 722 724 729 731 733 737
778 780 781 782 783 783 782 776 772 774 773 768 767 764 762 760 758 758 758 756 756 756 755 754 753 754 755 754 755 757 761 761 759 758 755 750 748 746 745 749 752 753 752 751 755 763 769 771 775 777 776 778 784 787 790 794 796 786 775 779 779 771 770 775 778 782 778 768 771 781 750 693 688 713 711 708 714 711 714 717 714 716 720 722 726 729 732 736
777 778 778 779 780 779 773 763 760 764 766 768 769 766 765 761 752 750 752 749 747 749 749 748 749 750 750 753 754 754 756 753 749 750 748 746 748 748 748 751 749 745 744 744 745 751 758 762 765 771 775 771 762 760 767 777 786 784 775 775 775 772 773 771 773 781 771 758 764 761 725 690 688 701 703 706 709 708 712 717 716 716 718 720 724 726 730 733
771 771 770 774 777 774 767 762 763 763 761 766 770 767 764 758 747 743 747 747 745 746 746 744 745 747 749 753 754 752 751 748 746 745 744 744 744 747 755 757 752 749 749 748 748 750 754 757 754 751 753 750 737 734 747 759 765 767 765 766 769 770 770 768 772 771 757 753 757 736 712 702 691 685 693 699 699 703 707 710 713 715 716 718 721 723 725 728
761 756 755 762 766 767 763 761 764 762 758 761 761 754 750 750 747 744 744 743 742 744 745 742 743 746 745 747 749 747 745 746 745 741 739 741 742 748 760 762 758 757 755 753 752 750 751 751 746 743 741 734 726 729 742 748 745 746 749 755 762 767 770 773 768 749 741 753 744 712 705 712 692 677 686 687 688 698 704 704 707 709 710 713 715 719 722 726
749 742 741 745 748 751 752 749 751 757 759 755 749 741 739 741 743 741 739 740 740 741 743 742 738 735 732 735 741 743 742 743 741 737 736 739 741 744 752 757 760 759 756 758 755 751 750 743 736 741 742 734 730 731 739 743 739 739 739 738 750 764 768 767 754 735 736 743 720 695 701 703 682 674 681 677 676 687 692 694 699 701 705 709 713 717 721 723
741 737 737 738 736 736 738 737 742 752 755 752 747 739 732 727 727 730 734 740 740 736 735 732 725 722 726 732 736 738 735 730 728 728 731 733 734 737 741 744 754 761 758 756 757 756 750 738 732 740 741 736 734 734 740 745 743 742 735 724 734 753 755 749 742 734 735 728 708 699 704 692 672 671 674 669 670 679 683 688 694 697 701 707 710 713 716 719
729 728 729 734 732 731 732 735 742 747 748 750 748 734 723 720 719 722 727 730 729 728 727 722 713 714 724 730 730 724 713 707 710 714 719 724 727 733 733 728 737 758 762 754 756 758 749 737 735 741 741 734 730 733 742 745 744 744 730 713 722 739 740 738 737 734 734 726 712 710 710 690 668 664 667 667 671 678 681 684 689 693 698 702 705 709 712 715
718 719 722 729 729 727 728 731 737 741 741 743 739 725 720 719 716 718 722 718 715 717 720 717 712 716 724 727 722 710 698 700 706 704 706 714 715 716 719 716 722 743 756 755 752 752 751 745 740 744 746 733 725 736 746 746 752 752 727 707 716 727 724 723 722 721 722 720 715 715 711 690 666 659 664 667 671 675 675 678 684 690 694 697 700 704 708 710
716 719 719 723 723 721 724 725 729 731 727 724 722 717 716 716 713 719 723 716 710 712 715 715 715 720 725 720 710 699 694 700 704 702 704 709 708 707 711 715 716 724 741 752 749 746 747 743 738 746 746 733 734 748 749 751 759 741 705 691 703 712 713 712 708 704 705 707 708 702 688 671 660 660 664 665 668 671 670 671 678 685 690 694 696 698 701 704
Wind_Speed
12 13 13 14 15 15 16 17 18 19 20 21 22 22 22 22 21 19 16 15 14 11 7 2 3 5 5 4 2 4 7 8 8 11 9 5 7 7 8 9 8 10 10 9 9 5 3 5 7 11 6 3 3 1 1 2 2 5 3 4 2 3 3 4 7 7 5 4 5 4 4 9 4 3 4 5 9 6 7 6 4 6 7 8 13 17 17 14
11 12 13 13 14 14 15 16 17 18 19 20 21 21 22 22 21 20 17 15 13 12 9 5 1 6 6 4 1 3 6 7 6 8 8 6 7 8 8 9 9 9 11 9 9 8 5 5 7 8 5 2 3 2 2 1 3 4 3 4 2 5 3 4 7 6 4 5 5 4 5 7 7 7 5 4 2 3 7 4 4 6 6 8 13 15 14 14
11 11 12 13 13 14 14 15 16 17 18 19 20 20 21 21 21 21 19 16 13 12 10 7 3 4 6 5 2 4 7 6 4 4 5 6 7 8 9 10 9 9 10 8 6 6 3 4 5 4 4 3 2 3 3 2 1 2 4 3 4 6 3 3 5 6 4 5 7 5 5 4 6 7 4 6 6 4 5 6 4 5 7 7 8 12 13 12
11 11 12 12 13 14 15 15 16 16 17 17 18 19 20 20 21 21 20 18 14 12 10 8 6 2 5 7 3 3 6 4 1 2 4 5 6 7 9 10 10 9 9 7 6 6 4 2 2 3 4 2 4 3 3 2 1 1 4 3 6 4 3 4 5 5 3 4 7 6 5 5 6 4 4 10 8 4 7 10 10 13 14 10 8 10 12 11
10 11 11 12 13 14 15 15 16 16 16 17 17 18 19 19 20 20 20 19 16 12 11 8 5 3 2 6 6 5 5 4 2 2 3 3 4 6 8 10 10 9 9 8 7 6 6 4 4 5 4 2 5 4 2 4 1 2 1 2 5 5 3 5 5 4 4 5 5 6 6 6 5 3 7 13 9 5 6 8 9 13 15 12 11 11 11 10
9 10 11 12 13 14 14 15 16 16 17 17 17 17 18 19 19 20 19 19 17 13 11 8 5 2 0 3 6 3 2 0 3 2 3 2 3 5 7 10 10 10 9 8 9 7 6 6 6 5 4 3 4 3 2 5 3 2 3 2 3 4 3 3 3 4 5 6 6 7 4 5 6 3 6 10 6 5 2 7 9 11 14 15 14 12 10 9
8 10 11 12 13 13 14 15 16 16 17 17 17 18 18 19 19 20 19 19 18 13 10 9 5 1 2 2 2 1 2 3 4 1 3 2 2 4 5 8 9 9 7 9 12 7 5 8 6 3 3 3 2 2 3 5 5 3 1 2 2 3 3 4 3 4 6 6 6 4 4 6 7 4 4 5 2 3 3 12 14 14 16 16 12 10 9 10
8 9 10 12 13 13 14 15 15 16 17 17 18 18 18 19 19 20 20 20 18 13 9 8 5 1 3 2 2 2 3 3 3 2 3 2 1 3 4 6 7 7 6 10 10 4 3 7 3 2 3 2 1 2 5 6 6 3 2 2 1 1 3 2 1 2 5 4 2 5 3 4 5 4 5 3 1 4 8 13 14 13 13 11 9 8 9 10
9 10 11 12 13 13 14 15 16 16 17 17 18 18 18 20 20 20 21 21 17 11 9 7 4 2 4 2 4 1 4 3 2 2 3 1 1 2 4 5 6 6 6 9 9 5 3 2 1 2 2 1 1 3 4 4 3 2 2 2 0 0 2 1 2 3 4 3 3 5 2 3 3 2 2 3 3 5 9 11 10 10 9 8 8 8 8 8
9 10 11 12 13 14 14 15 16 17 18 18 18 18 18 19 20 20 22 21 15 9 8 7 3 1 5 2 5 0 3 3 2 1 1 1 0 1 4 4 4 6 6 6 8 7 3 3 3 3 4 2 1 2 2 1 0 2 2 3 3 2 2 3 5 6 4 1 3 6 3 4 1 1 2 5 5 7 10 10 8 9 9 8 7 7 9 10
10 11 11 12 13 14 15 16 17 17 18 18 19 19 18 19 20 21 23 19 11 7 7 7 3 3 4 4 5 3 3 4 2 0 1 0 1 1 3 4 4 5 5 6 6 6 4 6 6 4 2 1 0 2 2 1 0 1 2 5 6 5 4 3 5 6 4 1 2 7 1 2 1 3 5 9 8 8 11 10 8 9 8 8 8 7 9 11
10 11 12 13 13 14 15 16 17 18 19 19 20 20 19 19 19 21 23 15 8 7 7 6 2 6 4 3 3 5 5 4 2 0 1 1 1 1 3 4 4 4 4 4 4 5 4 5 6 4 0 2 1 2 0 0 1 1 4 4 8 8 6 3 1 3 3 2 4 6 2 3 4 5 5 12 11 8 10 10 8 8 7 7 7 6 7 11
11 12 12 13 14 14 15 16 17 18 19 20 21 21 20 20 20 22 20 11 6 7 6 5 2 7 5 0 3 5 7 5 2 1 0 1 1 1 3 4 3 4 4 4 4 5 4 2 4 4 2 4 1 1 2 3 3 2 4 3 5 8 6 5 2 1 2 3 6 4 3 6 8 6 6 12 13 11 10 10 9 8 7 7 7 6 6 10
12 13 13 14 14 15 16 17 18 18 20 21 21 21 21 21 22 22 16 8 5 6 5 3 3 6 4 2 3 5 7 6 4 2 1 1 1 2 2 3 3 4 4 5 5 5 4 1 3 4 2 3 1 0 4 6 4 1 2 2 3 3 5 6 2 2 2 3 5 4 4 7 8 6 9 12 13 15 13 11 10 8 8 7 7 7 6 9
13 13 14 14 15 16 16 17 18 19 20 21 22 22 21 22 23 21 13 6 5 6 4 3 6 5 2 3 2 5 7 6 5 3 1 1 1 1 2 1 3 3 4 4 5 4 3 1 4 4 1 1 4 3 3 5 4 3 2 3 3 0 5 9 3 4 4 1 2 5 5 8 7 6 10 12 12 14 13 12 11 10 10 9 7 7 6 7
14 13 14 14 15 16 17 18 18 19 21 21 23 23 21 22 22 17 8 4 4 6 2 4 7 5 2 2 1 3 6 6 6 4 3 2 1 1 2 2 4 3 2 3 4 2 3 4 3 2 0 2 5 4 3 4 4 4 1 2 4 2 4 7 4 2 2 1 1 3 5 7 5 3 8 11 12 13 11 11 12 11 11 10 8 7 7 7
15 14 14 14 15 16 17 18 19 20 21 21 23 23 22 20 18 11 3 3 3 3 3 4 5 4 0 1 1 2 4 6 6 5 4 3 1 2 1 3 3 3 3 2 2 0 3 4 1 1 2 3 3 4 4 4 3 4 2 1 4 3 3 5 5 5 2 1 4 3 5 10 5 3 7 10 12 12 11 12 13 11 10 9 8 8 8 8
16 15 14 14 14 15 16 17 18 19 20 21 22 23 21 16 11 4 3 2 3 2 3 2 3 2 3 2 2 2 3 5 5 5 5 4 2 2 1 2 3 4 4 3 1 1 2 3 2 1 4 4 3 5 1 3 3 3 3 2 4 3 4 5 6 4 2 1 5 2 6 14 8 4 8 10 12 13 13 12 11 10 10 9 9 9 8 9
19 17 14 14 14 15 16 17 17 18 19 20 20 20 15 10 5 2 3 1 1 1 1 2 3 3 3 3 2 2 2 3 4 4 4 4 2 1 2 4 4 3 3 1 1 2 1 3 3 1 2 4 2 4 6 7 6 5 5 4 4 5 5 6 6 5 2 3 7 7 9 13 12 6 9 10 11 13 12 8 8 9 10 10 9 9 10 10
20 19 16 14 13 14 15 15 16 16 17 18 20 16 8 4 4 3 3 2 4 3 2 5 4 2 2 1 1 3 1 2 3 4 4 4 2 2 2 3 5 3 2 2 2 2 4 3 2 5 6 7 7 7 6 5 6 3 3 3 5 5 7 6 5 6 2 2 8 9 9 12 13 11 10 11 11 11 11 10 11 11 11 12 11 11 11 10
19 20 17 14 13 14 14 14 14 14 14 15 16 10 1 2 1 3 5 6 7 3 3 6 3 3 3 1 2 3 2 1 2 3 5 3 2 3 1 2 3 0 2 1 1 3 5 2 6 8 9 7 6 6 5 4 4 2 3 4 5 5 8 9 4 6 1 3 7 6 7 10 13 14 9 9 11 14 16 15 15 16 14 12 12 13 12 9
19 18 17 15 13 13 13 13 13 13 12 11 9 4 4 3 2 1 1 5 8 2 2 4 2 4 4 1 3 3 3 0 4 3 5 3 2 3 2 3 4 4 2 1 1 4 4 3 10 8 5 4 3 5 6 3 4 2 2 1 5 3 4 8 4 5 2 2 6 7 7 9 12 16 10 11 14 15 17 20 18 18 17 15 14 13 12 10
18 18 18 16 13 12 12 12 11 11 9 7 5 4 3 2 3 1 1 1 7 3 1 2 2 3 2 2 4 5 4 3 3 4 5 4 2 3 3 3 4 2 1 3 5 1 1 6 8 3 6 8 3 3 5 2 1 3 3 2 5 3 1 5 4 5 3 2 6 9 9 7 9 17 13 11 14 13 15 18 15 14 16 16 15 14 14 14
16 18 18 16 13 11 10 11 10 7 6 4 3 2 2 3 4 1 1 0 5 5 2 3 3 4 3 2 6 7 3 3 3 3 4 6 3 2 3 4 4 2 3 6 7 5 6 5 3 5 5 7 4 1 3 2 3 3 5 6 6 5 5 6 3 5 5 4 4 7 9 6 6 14 13 4 7 11 11 12 13 12 12 11 11 13 13 13
16 18 18 15 13 10 9 10 6 3 4 2 1 1 2 3 3 1 2 2 3 5 2 2 1 3 5 4 5 5 2 1 3 2 1 4 5 2 1 2 3 3 5 4 6 5 7 4 5 6 3 4 5 2 4 6 2 5 5 9 9 8 7 6 5 6 5 4 3 5 6 7 2 7 12 2 3 10 8 10 15 14 11 10 12 14 13 12
16 17 16 14 12 10 8 5 3 3 3 1 0 0 1 3 3 2 3 4 3 5 1 1 0 3 6 3 2 3 2 2 3 1 3 2 3 2 1 1 1 3 5 5 3 3 3 2 4 6 5 4 5 4 5 7 4 3 4 6 7 5 3 4 3 3 2 3 2 3 1 9 3 4 12 6 5 11 8 10 16 14 12 13 14 14 13 12
17 16 14 12 10 9 6 2 2 3 2 1 0 0 1 3 3 2 2 4 4 4 3 1 1 4 5 1 1 4 2 3 1 2 3 3 1 2 2 3 1 2 3 3 1 3 3 2 4 4 5 5 5 5 6 8 7 3 4 4 5 3 2 2 1 1 3 3 4 3 4 8 7 6 10 6 7 12 11 13 15 12 14 16 16 14 13 14
17 13 11 10 9 7 5 4 4 2 1 1 0 0 1 3 2 1 3 1 4 1 2 1 1 3 1 1 2 4 2 2 2 1 2 4 2 3 1 5 6 4 2 5 4 5 3 4 4 5 4 4 6 6 7 10 5 5 4 4 5 4 3 2 1 3 2 3 7 5 7 5 9 5 3 2 5 13 14 16 16 15 16 18 16 14 14 13
11 8 8 9 8 7 5 5 4 2 1 1 1 0 2 3 1 4 3 3 3 1 1 1 2 1 1 2 2 2 1 1 2 3 2 4 2 4 2 5 6 4 1 3 5 5 1 4 7 7 5 6 5 3 6 9 4 3 5 5 5 5 4 3 2 1 2 1 9 7 7 4 8 4 2 2 3 11 13 14 14 15 16 15 14 13 13 11
8 7 6 7 8 6 4 4 4 3 2 2 1 2 3 2 3 3 2 5 2 0 1 1 2 2 4 4 1 1 1 1 0 1 3 1 3 5 2 2 5 4 1 3 3 5 2 1 3 4 4 6 4 2 1 4 3 3 5 5 5 5 4 4 2 3 3 3 10 9 10 8 6 3 5 4 6 9 9 10 9 11 13 13 12 13 14 12
12 10 8 9 9 5 3 3 2 1 2 1 3 3 3 2 3 4 7 6 2 1 1 1 1 3 6 6 2 1 2 2 1 2 1 1 2 4 2 1 3 3 3 5 4 5 4 1 2 2 2 4 6 4 2 3 3 4 4 4 4 4 4 4 4 4 1 5 7 5 8 9 8 6 5 6 8 8 8 9 10 11 13 13 12 13 14 12
15 13 12 13 11 7 5 3 2 2 2 3 4 3 4 0 1 4 5 4 2 3 3 3 2 3 5 3 2 3 3 2 2 4 4 3 3 3 4 4 4 1 4 3 3 5 3 4 3 2 1 5 6 4 2 5 4 5 4 4 3 4 4 3 3 0 3 7 3 1 3 6 11 10 9 11 14 12 10 10 10 10 11 12 13 14 12 10
15 15 15 14 12 11 9 6 2 2 1 4 4 5 5 3 6 6 4 3 3 2 2 2 2 3 6 3 2 3 3 2 3 3 3 3 3 5 5 4 6 3 4 3 1 3 4 4 1 1 3 4 8 6 2 2 1 5 4 4 3 1 1 4 4 3 5 6 2 3 3 4 8 8 12 18 19 14 9 9 10 7 8 11 13 13 11 11
14 15 15 13 12 14 12 8 4 2 1 4 4 4 3 6 6 5 7 7 3 1 2 3 3 3 4 3 4 4 3 4 4 5 3 3 2 4 5 5 4 4 2 2 1 2 4 6 3 6 2 4 9 6 5 5 4 4 4 4 4 5 3 4 4 4 6 6 3 2 2 4 4 3 8 13 11 7 5 7 7 6 7 9 9 10 10 11
13 14 15 13 14 16 14 11 7 3 4 5 4 3 7 8 3 3 6 6 2 1 1 2 4 4 2 3 3 3 4 4 2 5 4 4 4 5 4 6 7 5 4 2 2 2 3 8 5 2 1 4 6 3 4 6 3 2 3 4 3 5 5 3 3 4 2 6 5 3 3 6 4 4 5 5 5 5 5 6 4 6 6 7 8 10 10 11
14 13 13 14 16 17 14 13 9 7 6 6 4 7 9 6 4 4 4 4 4 4 3 2 3 4 4 3 3 3 2 2 2 3 4 3 4 5 4 5 8 10 8 5 3 2 2 6 3 1 2 2 2 2 1 3 3 2 3 3 4 4 5 2 3 1 4 3 6 3 6 7 4 6 6 4 3 7 6 6 4 7 7 8 10 10 11 12
15 12 10 13 18 18 15 13 11 9 5 5 6 10 6 5 6 6 3 3 3 5 6 2 3 5 5 3 4 5 2 1 2 3 3 3 3 5 6 5 6 14 13 6 3 4 3 5 3 2 1 1 1 1 2 2 3 5 3 5 3 3 3 3 1 3 2 4 6 3 8 10 4 6 3 3 3 10 9 7 5 5 7 10 11 10 11 12
13 9 7 14 21 19 16 14 13 10 5 4 10 10 4 5 6 5 5 4 3 4 5 5 5 5 6 5 4 4 5 4 4 3 3 3 4 5 6 4 5 11 11 6 2 2 2 3 4 1 2 2 3 1 1 3 2 5 3 3 3 3 1 2 2 3 2 4 7 5 9 12 8 6 5 3 8 12 11 7 6 8 11 11 10 10 11 10
12 6 5 13 22 23 19 17 14 8 3 6 12 9 4 5 6 5 7 5 3 4 4 6 5 3 4 6 4 4 5 6 6 4 3 3 5 4 6 4 4 4 4 5 5 2 3 2 4 2 1 2 2 1 4 2 1 2 0 1 1 3 4 3 3 3 3 4 8 7 9 13 9 6 6 9 10 12 11 9 9 12 13 12 10 11 11 11
10 4 3 7 18 25 24 18 11 5 5 9 10 6 3 4 6 8 9 7 4 3 4 5 5 5 4 5 4 3 5 6 6 5 4 4 4 5 6 5 5 3 2 4 3 2 3 2 4 2 3 1 3 5 8 9 6 3 2 2 2 2 1 1 2 2 3 4 6 4 7 16 10 6 8 10 9 11 12 10 11 13 13 12 11 11 12 12
5 4 4 8 21 28 25 14 6 5 6 8 7 4 2 3 4 7 8 8 6 2 3 5 7 7 5 4 4 4 5 5 6 5 4 4 5 5 7 8 8 7 3 4 2 4 3 3 4 2 2 5 5 3 4 8 8 7 7 7 8 6 3 2 4 4 3 5 6 2 5 17 10 5 6 7 8 10 11 11 11 12 13 12 11 12 13 12
4 5 2 9 29 33 20 7 5 5 5 7 6 4 3 3 4 4 6 6 5 3 1 3 7 7 5 5 5 6 6 4 5 6 5 7 10 8 7 8 10 11 8 4 2 3 3 2 3 4 5 5 5 3 1 2 1 3 4 5 6 6 6 6 8 5 2 5 4 4 4 16 7 6 5 6 6 8 8 10 11 10 11 12 11 11 11 10
5 5 1 12 34 30 12 5 5 5 6 5 3 3 3 3 3 4 6 6 6 5 4 4 5 7 6 5 5 6 6 5 7 8 5 7 11 9 7 11 11 10 6 3 1 1 2 2 3 5 3 2 3 4 3 4 3 2 6 5 7 9 9 8 6 2 2 5 3 3 8 16 4 4 2 2 2 4 5 10 11 10 9 10 11 11 10 10
4 3 2 15 33 23 8 7 8 9 10 5 5 7 4 3 6 7 8 9 8 6 7 7 4 6 7 6 7 8 7 6 7 9 9 9 7 6 9 14 14 10 7 5 5 5 3 3 3 4 5 4 4 3 3 3 1 4 6 5 9 12 9 3 0 1 4 6 7 5 14 17 5 3 1 2 3 4 5 8 9 8 8 9 10 10 10 10
4 3 1 13 25 16 6 5 4 7 11 10 9 10 6 5 7 11 12 12 10 6 6 6 5 7 6 4 6 8 8 10 10 6 8 8 3 3 6 11 14 12 6 4 6 8 5 4 5 6 8 8 7 5 4 3 3 3 4 7 12 15 14 8 3 4 9 8 10 10 17 19 12 3 1 2 5 6 6 7 7 7 8 9 9 10 10 10
5 4 2 7 11 8 6 5 2 3 7 9 7 7 11 12 8 7 12 12 9 6 4 4 4 6 6 5 7 10 12 14 11 6 5 6 3 3 1 5 10 7 1 1 7 8 3 3 8 11 12 13 14 11 5 6 4 5 7 12 14 15 17 12 5 8 10 5 7 17 21 21 24 19 10 9 10 8 8 8 8 8 8 8 10 11 11 11
5 5 5 5 4 7 8 7 6 5 4 7 6 6 13 17 10 4 8 10 9 9 7 5 4 6 8 10 11 11 13 14 13 13 10 5 2 3 1 1 5 4 2 0 5 5 3 5 13 15 17 18 18 15 6 7 7 10 10 13 13 14 15 13 13 18 10 3 10 24 23 20 27 27 20 17 14 9 9 10 10 11 11 10 11 11 11 11
6 3 5 8 5 7 10 12 13 10 7 8 8 6 10 15 14 10 7 5 7 10 9 6 10 18 19 15 11 9 10 12 14 16 12 6 4 3 0 0 3 4 3 1 3 3 4 9 14 13 16 20 19 17 9 6 9 10 12 16 13 13 16 18 23 25 14 9 19 26 23 23 27 24 21 22 18 11 12 13 11 11 11 10 10 11 12 13
7 2 3 9 8 8 11 16 15 12 14 13 9 10 15 19 19 13 6 4 5 12 15 14 18 24 22 15 11 10 13 15 15 13 12 11 11 7 4 4 3 3 5 4 3 2 4 9 12 8 11 18 18 17 10 8 12 12 19 26 15 13 19 23 24 23 20 21 26 26 27 30 28 24 23 25 19 10 9 10 9 10 10 11 12 14 14 14
9 5 5 6 8 10 9 10 11 11 16 15 12 15 19 20 20 12 7 10 11 11 15 22 24 19 17 17 16 18 23 22 17 14 14 14 13 9 7 8 4 2 4 6 2 2 5 7 6 4 6 16 17 12 7 9 12 14 25 31 19 14 19 21 20 19 19 23 26 26 27 27 25 25 25 22 15 8 8 9 10 11 11 13 14 14 14 14
13 5 8 5 6 10 8 6 10 9 11 12 14 19 17 17 20 14 6 11 16 11 12 22 26 15 10 16 23 27 29 24 20 18 15 14 13 10 8 8 8 7 6 6 4 3 5 4 1 4 5 14 11 4 4 3 4 12 28 33 23 17 18 18 18 18 18 21 24 23 21 20 22 24 20 15 10 10 12 12 11 10 11 14 15 15 15 15
15 5 8 6 6 9 8 7 10 9 9 13 18 20 17 15 16 11 6 8 15 15 10 15 20 12 8 17 27 30 27 21 18 14 8 8 10 8 4 4 9 10 9 7 4 4 6 5 3 4 7 11 4 5 5 4 2 12 22 23 21 20 18 18 19 21 22 20 18 18 18 19 21 20 17 14 11 11 13 12 10 10 11 13 14 15 16 16
Wind_Direction
24 22 21 20 18 17 16 15 15 16 18 18 18 20 21 21 21 23 23 23 23 23 32 47 183 183 183 164 105 14 16 31 42 54 60 20 353 358 355 356 0 2 359 353 7 30 4 8 358 358 32 97 8 305 6 25 66 55 80 85 105 163 166 171 179 192 166 166 183 190 144 127 156 200 159 55 47 73 70 46 33 46 50 86 115 125 133 140
25 24 22 20 18 16 14 12 12 11 13 14 15 16 17 18 16 18 19 19 18 17 20 19 209 205 207 201 232 359 354 355 16 40 38 10 1 2 357 359 360 359 357 356 10 25 15 339 334 0 39 70 340 327 23 28 75 84 108 90 188 195 187 187 177 186 164 158 160 155 163 154 164 170 151 102 113 123 90 51 24 70 72 96 118 126 131 129
24 24 21 20 17 15 12 10 9 7 8 9 10 11 12 14 12 11 13 14 13 13 11 11 359 235 222 225 238 358 342 347 10 15 5 3 7 2 1 358 354 358 358 0 10 24 23 306 315 14 46 56 344 342 23 25 48 144 109 81 237 209 203 233 182 195 213 165 139 144 181 175 167 164 134 130 162 196 150 153 143 145 157 144 141 139 137 129
18 18 17 16 14 12 10 7 5 4 4 3 5 5 6 8 9 6 6 9 8 6 6 7 0 312 231 230 223 327 345 16 337 299 346 358 9 6 6 357 355 359 355 12 25 27 36 359 20 54 59 35 337 3 30 346 357 133 108 150 213 167 153 221 193 200 203 153 142 146 150 151 172 163 129 136 146 239 219 195 177 170 169 161 164 154 148 142
11 10 10 9 8 7 5 3 1 1 0 359 359 359 360 1 4 3 0 3 2 359 0 2 358 353 247 230 234 291 356 45 265 293 346 346 11 5 5 358 358 359 354 16 27 26 31 39 64 46 48 34 347 16 2 313 42 59 6 184 185 135 146 225 207 182 145 119 122 145 150 148 160 142 156 160 166 235 228 205 185 162 159 156 158 156 154 152
4 2 2 2 2 0 360 358 356 356 355 355 355 354 354 353 357 359 354 355 357 353 351 358 3 2 53 216 236 277 37 106 266 318 326 313 6 0 3 354 356 356 348 10 21 31 32 24 53 46 33 40 7 18 321 317 23 37 326 327 215 172 161 212 202 179 138 123 148 172 165 129 127 137 183 183 198 275 253 144 147 143 147 147 147 151 151 147
358 357 356 354 355 354 354 353 350 350 350 349 350 350 349 347 350 353 350 348 349 348 344 351 2 351 119 128 212 41 64 253 270 308 299 296 334 349 2 349 351 346 343 16 17 29 49 30 53 91 55 40 15 357 322 327 23 70 303 304 232 212 191 194 179 170 139 148 187 163 129 140 155 160 177 212 294 328 101 117 128 134 140 143 144 150 150 142
352 352 351 350 348 348 348 346 345 345 344 344 345 346 345 343 344 347 347 342 343 344 336 343 355 237 177 129 126 29 342 253 246 278 288 287 288 342 1 348 349 349 21 39 24 26 65 43 63 126 62 39 67 350 339 347 14 66 246 268 159 245 264 243 121 144 144 164 166 101 134 188 173 152 144 200 9 97 118 114 124 131 135 145 150 157 154 144
347 346 347 346 344 344 343 342 341 340 340 340 340 340 342 340 339 343 342 338 339 338 328 335 342 248 221 182 93 27 282 217 198 280 285 282 270 354 7 358 353 4 42 48 37 47 68 72 193 169 125 152 115 346 350 10 347 218 225 294 218 331 298 227 145 203 186 187 129 114 284 294 151 131 114 186 163 128 123 117 129 133 139 155 158 167 163 158
339 341 342 342 342 341 340 339 337 336 336 336 336 336 338 336 335 338 337 336 336 330 323 325 324 204 208 172 91 93 249 157 168 286 292 293 80 43 16 10 4 18 41 46 47 55 80 158 177 147 128 120 72 350 356 65 259 223 244 284 266 301 285 177 174 211 202 224 169 148 256 290 175 290 235 195 174 149 129 125 140 141 153 166 166 176 171 172
331 335 337 337 339 337 337 336 334 334 332 332 333 332 334 332 332 334 334 333 332 325 315 319 316 192 192 132 117 209 215 153 176 55 78 2 58 64 36 26 26 32 38 49 64 69 92 152 146 123 106 90 61 5 331 230 201 282 326 303 296 334 313 196 169 204 184 184 149 126 128 285 326 290 214 174 164 160 142 141 157 155 165 170 172 180 177 183
323 327 329 331 334 334 335 333 331 332 328 329 329 328 331 329 329 331 332 331 326 318 306 318 309 189 169 95 157 212 196 171 194 128 90 50 78 84 54 40 41 46 34 53 89 85 88 145 121 95 144 139 106 7 302 233 23 336 21 334 306 353 342 278 191 203 177 184 167 120 27 269 216 248 195 155 156 157 147 153 167 168 175 175 177 182 184 190
318 321 322 325 328 330 332 330 330 329 325 327 326 327 329 327 327 328 328 326 311 312 304 312 255 178 149 128 226 201 189 191 211 218 304 343 184 147 49 47 71 65 49 74 110 94 83 137 112 109 141 114 122 270 83 38 24 323 32 29 320 357 335 304 10 108 151 180 180 146 291 253 226 227 162 151 155 152 157 171 176 178 182 183 184 186 191 195
313 316 318 320 323 326 328 328 327 326 324 325 324 325 326 325 324 323 323 313 293 305 304 288 186 162 147 243 229 188 198 206 217 226 274 297 219 198 25 45 100 83 64 80 97 91 78 110 99 95 108 100 132 264 34 10 17 355 359 39 10 358 292 300 354 137 156 192 173 155 261 255 247 230 169 164 163 160 171 181 181 187 187 189 191 189 198 198
305 311 315 316 318 322 324 325 325 324 324 322 323 323 324 325 321 321 318 289 279 305 299 203 174 147 113 285 236 192 211 216 219 220 235 306 214 207 340 39 143 103 75 74 84 90 68 52 87 81 279 24 56 62 27 349 5 31 345 322 347 335 279 303 298 176 184 267 155 161 245 269 267 235 177 168 171 171 177 184 185 191 190 192 197 192 198 201
299 306 310 311 315 319 320 323 323 323 322 322 324 322 323 324 319 318 308 249 288 307 278 176 179 149 106 284 243 200 219 223 222 217 231 282 7 2 3 125 147 112 99 84 84 93 47 52 70 72 188 50 61 74 42 6 346 3 51 263 280 259 299 317 317 257 221 305 267 196 238 275 287 229 176 169 178 182 183 189 190 193 195 194 197 196 195 198
295 300 305 309 311 314 317 321 322 323 323 323 325 323 325 323 316 317 277 220 317 307 163 157 169 149 305 240 197 259 225 214 217 216 235 258 310 354 48 118 113 98 102 85 88 73 26 48 46 319 50 55 72 83 39 355 311 325 15 248 253 236 265 301 307 320 28 142 249 230 238 259 264 147 177 181 180 187 192 196 195 194 197 197 198 200 198 195
290 293 299 305 309 311 315 318 321 324 323 324 327 324 322 318 312 310 205 211 5 63 128 118 120 114 287 231 195 237 185 187 207 217 234 244 273 337 58 107 107 92 58 31 25 28 359 24 50 21 21 7 33 84 101 254 211 237 273 273 285 265 230 250 275 297 32 251 251 231 251 263 262 177 189 196 185 195 204 199 198 196 197 201 201 201 202 199
288 290 295 301 306 309 312 317 321 325 326 327 331 328 321 316 313 259 205 201 36 108 198 225 153 144 240 240 200 160 141 173 202 223 223 222 251 1 85 83 90 91 59 357 327 22 51 32 41 26 313 291 254 148 184 210 184 198 226 215 251 275 259 233 239 266 278 276 263 240 247 265 268 232 199 200 192 202 212 201 200 203 202 205 206 207 205 203
291 291 293 299 304 306 311 318 320 325 331 333 336 339 337 344 351 326 311 287 224 197 221 229 212 217 246 267 158 148 174 215 222 225 196 195 206 104 94 48 43 53 92 184 258 15 82 73 266 229 233 240 232 197 174 172 162 171 198 220 237 242 273 262 237 280 280 232 263 243 239 260 267 256 217 196 193 204 213 209 208 207 205 207 205 207 206 206
296 293 292 298 305 307 310 317 320 325 334 337 339 348 54 123 19 319 318 297 268 227 238 245 229 264 263 218 169 156 136 264 268 220 182 190 133 139 229 29 68 91 274 196 235 7 66 92 242 227 220 223 217 179 139 126 138 149 200 247 272 220 256 277 271 298 295 184 265 254 243 258 262 263 233 176 188 207 209 208 210 207 207 209 205 207 208 206
299 291 291 295 302 307 311 317 320 323 333 338 345 42 117 126 134 260 338 301 291 266 220 262 258 269 265 212 202 154 113 268 294 250 185 159 101 182 250 61 139 203 294 78 74 0 24 247 248 238 195 143 98 124 125 129 141 138 158 217 282 237 262 290 300 327 9 173 269 275 261 258 263 268 243 181 196 213 210 209 209 205 205 207 203 204 205 202
298 295 295 295 300 306 310 317 317 320 335 351 12 84 110 124 136 125 74 277 291 298 164 234 204 229 268 253 198 154 144 198 245 247 181 142 114 195 164 121 161 178 72 165 168 160 258 248 246 214 140 129 91 79 113 94 141 169 163 184 266 265 285 284 300 338 330 232 271 287 279 260 260 269 255 199 203 217 216 216 216 210 208 208 204 204 201 198
298 300 300 296 300 305 311 317 313 313 328 357 30 83 138 166 156 141 20 269 289 293 239 208 189 191 199 194 171 153 156 198 194 223 175 147 150 167 161 155 143 152 233 198 170 188 239 241 159 109 120 143 146 37 136 178 285 242 198 200 244 260 233 237 281 336 319 297 305 314 300 268 233 255 261 227 212 230 222 217 223 223 217 209 209 213 207 200
300 300 302 299 299 303 315 318 309 312 323 336 48 80 135 179 181 138 31 23 296 298 280 218 214 200 182 135 151 163 148 219 216 212 155 147 157 147 184 156 136 204 223 169 156 224 261 252 131 120 108 130 149 215 196 179 248 294 231 209 227 246 248 261 321 353 339 323 343 15 326 280 233 251 263 270 218 238 219 212 224 221 211 204 211 214 208 207
302 301 301 296 299 306 314 315 306 334 329 298 188 21 145 188 196 169 60 47 293 278 248 199 201 176 175 135 154 162 119 287 270 118 84 104 160 134 141 166 57 220 193 146 158 232 262 356 87 132 140 131 156 237 234 169 141 300 251 200 205 221 247 278 336 7 294 268 288 71 306 274 282 250 259 244 222 243 227 222 230 220 209 209 214 210 202 206
295 305 304 293 304 319 315 297 295 315 312 274 215 277 200 175 189 218 43 27 286 236 148 263 319 152 177 190 153 145 180 272 1 61 68 70 12 75 147 218 142 221 186 127 293 251 170 76 56 103 120 136 175 240 229 159 133 245 235 134 123 128 171 206 135 237 248 279 281 180 168 270 273 244 262 252 233 255 248 234 235 222 215 217 216 208 202 204
284 299 310 298 304 316 303 293 307 318 201 236 340 281 179 164 180 76 71 308 275 183 124 270 107 125 165 18 69 113 218 270 110 270 9 60 29 66 173 227 181 200 188 132 234 260 149 157 185 153 130 181 207 223 192 157 156 241 204 115 96 104 134 146 121 263 291 4 293 231 149 257 272 239 294 337 233 258 256 241 235 222 218 219 215 206 204 205
276 290 306 294 293 301 294 288 298 307 260 281 350 156 146 150 139 66 90 236 268 70 75 84 127 121 44 62 28 61 1 353 132 251 350 61 40 66 166 215 155 169 190 132 224 256 129 199 194 155 163 213 216 221 182 164 191 219 139 94 59 64 66 62 65 306 33 10 268 248 154 221 274 212 155 25 236 247 252 247 237 223 221 219 211 204 204 204
271 273 276 275 286 300 300 290 281 280 290 281 187 145 133 111 77 89 207 236 254 254 105 123 177 169 107 121 298 326 183 251 220 1 20 66 12 35 132 184 100 118 340 355 273 261 316 287 176 151 187 195 148 98 144 150 160 131 90 53 23 31 43 39 50 69 46 268 259 240 176 191 277 238 175 199 219 222 235 250 244 225 220 214 205 202 203 201
260 256 257 272 283 289 301 321 323 306 310 215 165 129 104 49 76 153 221 242 258 252 151 176 205 130 132 154 199 201 169 238 224 133 124 154 14 34 99 175 71 70 359 335 298 302 334 333 227 238 181 131 101 83 42 34 82 98 75 51 11 343 11 15 2 48 59 253 261 244 183 193 241 244 215 229 237 225 221 241 240 221 214 207 202 203 202 198
244 246 254 264 270 263 261 291 12 0 345 148 146 98 89 120 212 188 231 289 281 213 180 186 203 159 161 161 190 191 175 209 194 167 164 159 177 188 187 190 170 25 316 260 277 326 302 230 252 306 197 143 113 89 19 355 37 91 91 75 44 336 354 342 309 33 228 245 251 119 160 223 243 244 246 252 255 245 227 235 242 224 212 203 200 204 199 189
237 241 243 247 254 251 247 253 280 325 334 144 128 61 85 187 232 197 201 255 233 211 148 120 107 139 143 140 233 206 171 212 191 170 169 147 185 234 245 215 173 193 256 218 292 325 292 292 303 176 261 177 151 154 196 259 144 145 147 127 128 114 355 284 267 270 271 265 237 116 127 261 271 256 231 234 248 253 238 240 247 231 209 204 201 200 193 187
244 244 235 236 245 243 239 240 250 268 194 140 98 72 127 218 237 197 206 227 233 339 37 97 89 100 139 178 233 199 177 227 175 150 172 136 167 238 240 231 186 152 153 152 202 204 244 292 223 177 231 185 177 184 162 143 145 172 156 133 150 153 179 242 240 254 287 299 262 152 146 234 254 270 222 227 255 277 270 258 252 232 209 200 197 191 187 190
246 241 230 231 236 235 233 235 243 233 181 134 98 153 201 216 212 188 215 220 226 339 21 49 88 111 223 262 267 221 205 236 153 133 178 173 184 207 194 204 195 154 126 162 237 170 208 264 252 218 267 168 182 209 126 117 116 199 130 114 180 181 172 214 228 213 298 320 279 202 217 228 227 271 238 226 282 291 288 284 244 220 204 179 187 190 188 192
241 238 232 227 229 229 224 225 228 212 173 126 143 212 217 213 181 189 207 179 180 157 116 25 84 138 246 278 267 247 220 231 152 148 207 210 208 209 202 215 193 176 167 169 207 181 206 272 286 349 321 128 164 242 139 140 173 165 137 180 216 173 135 162 273 337 69 301 273 231 258 276 308 282 233 175 274 272 278 282 227 210 197 182 195 195 189 193
230 236 233 222 225 223 216 216 212 198 158 122 198 220 215 208 191 186 190 153 154 134 127 193 203 180 219 242 230 219 181 212 181 173 213 230 228 197 198 245 197 185 191 179 207 215 199 268 275 132 199 266 215 184 29 13 129 129 177 217 190 118 99 113 263 330 51 255 268 259 266 279 295 282 278 94 261 258 253 246 222 210 201 200 207 198 191 192
223 240 246 231 227 219 213 212 196 177 123 143 223 235 210 203 205 181 177 160 125 112 138 205 216 185 191 207 231 200 173 194 178 173 205 220 245 188 162 221 206 194 202 176 201 250 146 254 284 102 201 295 6 90 17 341 68 125 192 222 127 148 185 110 163 240 208 244 271 278 282 277 247 241 281 236 221 240 243 222 202 208 209 209 208 196 191 187
217 236 268 239 228 220 209 197 181 161 127 195 223 237 204 203 225 207 186 167 139 138 177 218 218 195 182 180 197 187 182 195 172 177 206 192 235 212 168 202 193 192 216 156 175 227 111 210 277 331 272 309 22 153 189 225 27 83 93 345 64 178 179 161 172 193 181 231 271 293 307 288 252 201 232 232 211 223 229 208 201 211 211 210 202 191 190 188
205 228 270 214 210 205 190 175 166 168 203 214 220 221 187 202 232 228 209 191 187 184 196 212 201 208 208 181 187 183 192 209 182 185 218 196 225 239 209 199 156 145 5 81 150 190 102 196 246 319 334 257 192 205 192 183 175 172 200 223 224 184 149 230 212 169 182 228 259 284 291 281 269 169 199 223 207 216 219 203 205 215 213 209 200 192 192 191
183 237 256 191 186 179 166 161 180 192 210 231 231 211 186 200 220 238 231 212 217 225 166 180 196 204 192 176 201 188 183 212 193 190 231 215 218 239 213 187 152 146 110 71 158 197 156 188 205 180 229 216 216 234 205 195 183 178 194 201 200 188 162 246 254 216 194 231 237 176 268 275 273 146 190 212 196 216 215 197 204 214 213 206 200 198 194 191
184 220 262 183 178 167 154 168 208 190 215 232 222 202 195 205 207 224 226 207 217 241 210 202 208 203 190 184 196 185 179 206 197 198 235 222 213 224 207 175 153 151 151 141 196 193 135 135 201 217 220 220 246 305 322 260 244 211 218 194 187 189 174 200 236 224 178 236 233 99 271 270 259 135 186 205 202 227 206 189 205 212 210 203 197 199 194 191
203 208 28 169 173 165 158 214 211 207 231 230 226 226 197 203 218 207 201 199 205 210 222 234 202 199 219 205 186 192 194 205 200 194 224 236 223 219 187 163 154 151 154 157 170 138 103 123 216 259 299 355 331 335 3 23 34 259 244 191 183 206 201 204 221 178 155 223 187 110 253 260 266 101 191 216 247 259 200 190 207 208 205 203 196 195 193 188
193 192 31 171 179 179 188 209 203 214 223 222 236 233 221 223 219 205 196 199 199 186 205 223 195 199 225 203 193 208 194 204 219 204 212 230 233 218 184 169 166 171 186 195 173 170 191 174 180 252 295 319 330 342 335 328 263 232 237 197 204 220 214 210 55 131 246 219 165 183 251 258 269 69 43 309 292 262 221 210 216 208 200 200 196 195 191 184
163 188 70 180 191 202 222 210 191 208 215 218 229 230 236 255 228 211 207 207 203 182 196 225 200 196 208 174 195 215 198 212 231 221 216 227 250 259 204 187 189 190 201 202 161 162 186 180 174 207 234 247 252 236 213 220 208 226 239 210 213 216 208 210 212 222 242 217 171 208 250 262 267 242 130 276 260 248 240 229 228 224 210 201 196 193 190 186
165 197 180 176 195 217 246 239 197 200 206 204 219 227 223 236 244 214 207 214 213 191 203 234 192 186 193 172 198 220 218 222 229 231 225 212 224 270 224 202 214 213 252 115 151 152 149 189 204 211 218 230 244 241 187 134 159 204 217 214 212 211 209 211 220 231 233 208 200 232 245 262 271 266 261 260 247 235 236 228 223 224 213 202 199 195 192 190
190 206 185 165 181 209 228 233 215 223 204 175 190 214 215 225 242 230 204 207 199 193 220 242 187 190 203 193 201 220 223 224 228 233 232 207 217 290 31 161 241 252 311 156 170 149 113 222 223 221 227 235 247 249 197 145 208 225 221 220 210 206 207 201 216 228 220 154 243 246 246 255 265 268 271 268 256 235 229 224 217 216 209 201 198 192 189 187
201 212 181 177 190 199 207 214 209 208 205 191 200 226 228 225 224 218 206 187 174 187 208 229 212 214 214 199 198 221 226 228 232 232 231 222 218 235 269 216 225 207 177 179 232 163 145 237 234 221 236 245 250 254 231 200 242 248 248 244 214 190 203 206 218 227 215 213 245 253 258 259 262 267 272 270 267 252 234 226 215 213 207 194 191 188 186 187
206 245 181 185 204 205 206 213 204 196 207 211 216 231 235 232 224 213 176 144 192 202 203 216 223 220 216 202 196 216 222 225 229 223 217 223 220 206 222 251 233 181 170 177 237 178 162 243 240 214 242 252 250 252 243 239 258 263 262 258 231 188 208 216 223 229 225 233 246 258 265 265 266 270 269 270 274 264 238 226 210 207 200 188 191 192 189 190
206 225 184 180 213 216 216 212 195 197 211 212 223 232 234 236 233 218 168 180 207 205 200 219 229 221 207 204 208 222 226 222 224 221 205 209 217 206 215 224 178 126 192 185 201 226 205 237 237 169 240 257 254 248 228 231 251 260 263 262 247 214 223 229 231 233 233 241 248 254 261 265 268 268 268 272 277 260 233 222 209 205 196 190 195 194 190 191
213 198 169 177 225 211 209 200 184 200 214 205 221 233 233 237 234 228 215 213 220 215 196 215 231 228 199 206 216 227 231 226 229 233 214 203 212 210 215 208 161 150 193 188 165 194 203 227 228 128 224 256 258 230 187 215 261 263 262 261 251 232 231 236 236 231 229 239 247 251 254 259 264 267 271 275 264 239 232 225 213 206 197 194 197 193 191 192
214 187 169 199 233 203 199 203 188 199 215 205 215 228 230 236 236 229 240 238 229 231 216 212 226 228 209 218 222 228 234 234 236 241 223 206 225 232 230 189 170 168 173 173 173 179 182 201 202 160 223 257 257 111 113 73 5 264 258 254 244 236 233 239 245 239 231 232 241 247 247 250 257 265 274 272 251 230 231 225 207 202 201 198 198 194 193 192